Погода в Мирпур-Хасе

Пакистан     25°31′14″N   69°00′48″E
темп.,
°C
ветер,
м/с
пор.,
м/с
влажн.,
%
обл.,
%
осадки,
мм/ч
давл.,
гПа
погр.,
м
14 мая, пт
пт1423:00+31юз916450 0.0 999525
02:00+29ююз712610 0.0 999538
05:00+28юз814720 0.0 999542
08:00+30юз89600 0.0 1001725
11:00+38юз78270 0.0 10011412
14:00+42юз66140 0.0 9972975
17:00+42юз65130 0.0 9963937
20:00+35юз913310 0.0 998622
15 мая, сб
сб1523:00+31юз813460 0.0 1000599
02:00+29юз712600 0.0 999486
05:00+28юз611721 0.0 999429
08:00+31юз67540 0.0 1001502
11:00+39ююз65230 0.0 10001204
14:00+43ююз42131 0.0 9973367
17:00+43ююз33112 0.0 9964201
20:00+35ююз9154092 0.0 999605
16 мая, вс
вс1623:00+33юз6103598 0.0 1001411
02:00+30юз374262 0.0 1000196
05:00+29юз4747100 0.0 1000172
08:00+32зюз113594 0.0 1002353
11:00+40всв331421 0.0 10021229
14:00+44вюв431164 0.0 9994103
17:00+44ююв331035 0.0 9974521
20:00+39ю471280 0.0 999160
17 мая, пн
пн1723:00+36юз361399 0.0 1001117
02:00+34сз221999 0.0 100027
05:00+35в3617100 0.0 1000142
08:00+37всв131699 0.0 1002403
11:00+38вюв4619100 0.0 1002768
14:00+37вюв5726100 0.0 1001822
17:00+36в2327100 0.0 100094
20:00+35вюв41127100 0.0 1002444
18 мая, вт
вт1823:00+35вюв3625100 0.0 1002138
02:00+32вюв41046100 0.0 1002596
05:00+30вюв6115599 0.0 1002504
08:00+31вюв81253100 0.0 1004831
11:00+36в10133197 0.1 10031702
14:00+39вюв8927100 0.1 10013210
17:00+37вюв9931100 0.1 10002482
20:00+33вюв594451 0.1 1002692